User: anonymous   Login
Location: Unspecified
(35.6961°N, 0.0000°E)
Time: 18:55:37
(UTC+00:00)
Language:

SR - Orbit

View from above orbital plane
View from above orbital plane
View from above satellite
View from above satellite

Ground track
Ground track

The orbit data is extracted from the following two-line orbital elements,

1    46U 60007B   19143.93381706 -.00000021 +00000-0 +18969-4 0  9999
2    46 066.6919 021.6727 0203627 061.2051 300.9337 14.49226722082520
Epoch (UTC): 23 May 2019 22:24:41
Eccentricity: 0.0203627
inclination: 66.6919°
perigee height: 583 km
apogee height: 873 km
right ascension of ascending node: 21.6727°
argument of perigee: 61.2051°
revolutions per day: 14.49226722
mean anomaly at epoch: 300.9337°
orbit number at epoch: 8252

The dashed part of the orbit path shows where the satellite is in the earth's shadow,  

DLR